Weather History for Bishop, CA

Change the Weather History Date:

Thursday, February 21, 2013

  Actual Average Record
Temperature  
Mean Temperature 34 °F 43 °F  
Max Temperature 50 °F 59 °F 75 °F (1948)
Min Temperature 17 °F 28 °F 16 °F (1987)
Degree Days  
Heating Degree Days 31 22  
Month to date heating degree days 491 494  
Since 1 July heating degree days 3033 3063  
Cooling Degree Days 0 0  
Month to date cooling degree days 0 0  
Year to date cooling degree days 0 0  
Moisture  
Dew Point 5 °F    
Average Humidity 37    
Maximum Humidity 61    
Minimum Humidity 12    
Precipitation  
Precipitation 0.00 in 0.03 in 0.97 in (1980)
Month to date precipitation 0.00 0.63  
Year to date precipitation T 1.68  
Snow  
Snow 0.00 in 0.00 in 6.00 in (1944)
Month to date snowfall 0.0 0.1  
Since 1 July snowfall 2.8 5.9  
Snow Depth 0.00 in    
Sea Level Pressure  
Sea Level Pressure 29.99 in    
Wind  
Wind Speed 8 mph (NNW)    
Max Wind Speed 21 mph    
Max Gust Speed 29 mph    
Visibility 10 miles    
Events      
T = Trace of Precipitation, MM = Missing Value Source: NWS Daily Summary

Daily Weather History Graph

Daily Weather History Graph

Search for Another Location

Airport:

Trip Planner

Search our weather history database for the weather conditions in past years. The results will help you decide how hot, cold, wet, or windy it might be!

Date:

Astronomy

Feb. 21, 2013 Rise Set
Actual Time 6:34 AM PST 5:39 PM PST
Civil Twilight 6:08 AM PST 6:06 PM PST
Nautical Twilight 5:38 AM PST 6:36 PM PST
Astronomical Twilight 5:07 AM PST 7:06 PM PST
Moon 2:02 PM PST (2/21) 3:39 AM PST (2/21)
Length of Visible Light 11h 57m
Length of Day
11h 04m
Waxing Gibbous, 84% of the Moon is Illuminated
Feb 21
Waxing Gibbous
Feb 25
Full
Mar 4
Last Quarter
Mar 11
New
Mar 19
First Quarter

Hourly Weather History & Observations

Time (PST) Temp. Windchill Dew Point Humidity Pressure Visibility Wind Dir Wind Speed Gust Speed Precip Events Conditions
12:56 AM 23.0 °F 17.0 °F 7.0 °F 50% 29.90 in 10.0 mi NNW 4.6 mph - N/A   Clear
1:56 AM 21.9 °F - 6.1 °F 51% 29.90 in 10.0 mi Calm Calm - N/A   Clear
2:56 AM 18.0 °F - 5.0 °F 57% 29.89 in 10.0 mi Calm Calm - N/A   Clear
3:56 AM 19.0 °F 12.3 °F 6.1 °F 57% 29.90 in 10.0 mi West 4.6 mph - N/A   Clear
4:56 AM 18.0 °F 6.9 °F 6.1 °F 60% 29.93 in 10.0 mi North 9.2 mph - N/A   Clear
5:56 AM 21.0 °F - 7.0 °F 55% 29.97 in 10.0 mi Calm Calm - N/A   Mostly Cloudy
6:56 AM 25.0 °F 19.3 °F 8.1 °F 49% 30.00 in 10.0 mi North 4.6 mph - N/A   Overcast
7:56 AM 30.0 °F 24.1 °F 9.0 °F 41% 30.03 in 10.0 mi WNW 5.8 mph - 0.00 in   Overcast
8:56 AM 39.9 °F 36.7 °F 12.9 °F 33% 30.01 in 10.0 mi North 4.6 mph - N/A   Scattered Clouds
9:56 AM 41.0 °F 39.0 °F 12.9 °F 32% 30.01 in 10.0 mi Variable 3.5 mph - N/A   Partly Cloudy
10:56 AM 44.1 °F 38.1 °F 10.0 °F 25% 30.02 in 10.0 mi North 11.5 mph 18.4 mph N/A   Clear
11:56 AM 48.0 °F - 6.1 °F 18% 30.01 in 10.0 mi North 9.2 mph 23.0 mph N/A   Clear
12:56 PM 48.0 °F - 1.0 °F 14% 29.99 in 10.0 mi NNW 11.5 mph 19.6 mph N/A   Clear
1:56 PM 48.9 °F - -0.0 °F 13% 29.98 in 10.0 mi NW 13.8 mph 19.6 mph N/A   Clear
2:56 PM 50.0 °F - -0.9 °F 12% 29.99 in 10.0 mi NNE 13.8 mph 19.6 mph N/A   Clear
3:56 PM 48.0 °F - -2.0 °F 13% 29.98 in 10.0 mi North 16.1 mph 23.0 mph N/A   Clear
4:56 PM 46.9 °F - -2.0 °F 13% 29.99 in 10.0 mi North 15.0 mph 23.0 mph N/A   Clear
5:56 PM 41.0 °F 34.3 °F 3.0 °F 21% 30.04 in 10.0 mi North 11.5 mph - N/A   Clear
7:56 PM 34.0 °F 29.8 °F 3.9 °F 28% 30.07 in 10.0 mi WNW 4.6 mph - N/A   Clear
8:56 PM 30.9 °F 25.2 °F 3.9 °F 32% 30.07 in 10.0 mi NW 5.8 mph - N/A   Clear
9:56 PM 36.0 °F 28.0 °F 6.1 °F 29% 30.05 in 10.0 mi North 11.5 mph - N/A   Clear
10:56 PM 32.0 °F 26.4 °F 6.1 °F 34% 30.07 in 10.0 mi WNW 5.8 mph - N/A   Clear
11:56 PM 28.9 °F 19.8 °F 5.0 °F 36% 30.07 in 10.0 mi NW 10.4 mph - N/A   Clear